Weather in Bușteni

Romania     45°24′31″N   25°32′06″E
temp.,
°C
wind,
m/s
gust,
m/s
humid.,
%
clouds,
%
prec.,
mm/h
press.,
hPa
HPBL,
m
6 may, thu
thu600:00+6ssw348995 0.0 100973
03:00+7ssw339298 0.1 100856
06:00+5e1297100 8.6 1011101
09:00+7n449092 8.9 1012669
12:00+6n239495 0.1 1015377
15:00+9n327496 0.3 1014762
18:00+8n217495 0.3 1014766
21:00+5e0193100 0.3 101613
7 may, fri
fri700:00+6s3385100 0.0 101549
03:00+5s459346 0.0 101596
06:00+6ssw2387100 0.1 101361
09:00+11ssw3661100 0.1 1012700
12:00+15ssw494718 0.0 10101756
15:00+15sw41049100 0.0 10092046
18:00+14sw41056100 0.0 10081590
21:00+8s22895 0.1 101023
8 may, sat
sat800:00+7sw2294100 0.3 101020
03:00+4n4599100 0.9 1014504
06:00+3n36100100 1.8 1016632
09:00+3n4699100 2.0 1018509
12:00+3n3693100 0.3 1020856
15:00+4nnw468268 0.5 10201007
18:00+6nnw576158 0.0 10201361
21:00+1n129319 0.1 102356
9 may, sun
sun900:00−1wsw11935 0.0 102615
03:00−1ssw11915 0.0 102714
06:00−1s2286100 0.0 102819
09:00+7w11485 0.0 1027795
12:00+12n123337 0.0 10241564
15:00+13wnw123714 0.0 10231755
18:00+12sw22478 0.0 10231424
21:00+4s45852 0.0 102791
10 may, mon
mon1000:00+3s47885 0.0 1028175
03:00+2s47865 0.0 1027154
06:00+2s46855 0.0 1027125
09:00+9s45490 0.0 1024475
12:00+14s44370 0.0 1023940
15:00+15s44380 0.0 10221040
18:00+13s44480 0.0 1022719
21:00+5s46810 0.0 1024123